Flag for Canada Weather past 2 weeks in Laval, Quebec, Canada

Now
3 °F

Passing clouds.


Feels Like: -13 °F
Forecast: 3 / 13 °F
Wind: 12 mph from Northeast

Location: Montreal / Mirabel

Current Time: Jan 26, 2015 at 11:28:33 PM

Latest Report: Jan 26, 2015 at 11:00 PM


Visibility: 25 mi

Pressure: 30.20 "Hg

Humidity: 55%

Dew point: -9 °F

Location of LavalLocation

Historic Weather in Laval — Graph

°F

Laval temperature yesterday

Maximum temperature yesterday: 28 °F (at 2:00 AM)
Minimum temperature yesterday: -2 °F (at 11:00 PM)
Average temperature yesterday: 10 °F

Past Weeks' High & Low Weather Summary

 TemperatureHumidityPressure
High32 °F (Jan 19, 10:00 AM)100% (Jan 18, 8:54 PM)30.84 "Hg (Jan 18, 8:54 PM)
Low-18 °F (Jan 14, 3:00 AM)44% (Jan 25, 2:00 PM)29.30 "Hg (Jan 25, 1:00 AM)
Average8 °F71%30.07 "Hg
* Reported Jan 11 10:00 PM — Jan 26 10:00 PM, Laval, Weather by CustomWeather, © 2014

Note: Actual official high and low records may vary slightly from our data, if they occured in-between our weather recording intervals... More about our weather records

Advertising

Laval weather history for previous 24 hours

 ConditionsComfort  
Time TempWeatherWind HumidityBarometerVisibility
10:00 PM
Jan 26
1 °FPassing clouds.5 mph55%30.20 "Hg25 mi
9:00 PM0 °FPassing clouds.6 mph60%30.22 "Hg25 mi
8:00 PM0 °FClear.6 mph60%30.22 "Hg25 mi
7:00 PM0 °FClear.5 mph54%30.23 "Hg25 mi
6:00 PM-2 °FClear.3 mph59%30.24 "Hg25 mi
5:00 PM1 °FPassing clouds.5 mph55%30.24 "Hg25 mi
4:00 PM3 °FPartly sunny.7 mph50%30.21 "Hg45 mi
3:00 PM5 °FPartly sunny.12 mph51%30.20 "Hg45 mi
2:00 PM3 °FBroken clouds.9 mph50%30.22 "Hg45 mi
1:00 PM3 °FPartly sunny.7 mph50%30.24 "Hg45 mi
12:00 PM1 °FScattered clouds.8 mph55%30.25 "Hg45 mi
11:00 AM1 °FPassing clouds.8 mph55%30.26 "Hg45 mi
10:00 AM-4 °FPassing clouds.5 mph65%30.26 "Hg25 mi
9:00 AM-9 °FPassing clouds.5 mph77%30.25 "Hg25 mi
8:00 AM-11 °FPassing clouds.5 mph70%30.24 "Hg25 mi
7:00 AM-17 °FPassing clouds.2 mph76%30.22 "Hg45 mi
6:00 AM-13 °FClear.No wind76%30.20 "Hg25 mi
5:00 AM-11 °FClear.No wind70%30.19 "Hg25 mi
4:00 AM-9 °FClear.No wind77%30.18 "Hg25 mi
3:00 AM-8 °FClear.3 mph70%30.17 "Hg25 mi
2:00 AM-6 °FClear.3 mph70%30.16 "Hg25 mi
1:00 AM-4 °FClear.3 mph71%30.14 "Hg25 mi
12:00 AM-4 °FClear.3 mph65%30.14 "Hg25 mi
11:00 PM
Jan 25
-2 °FClear.2 mph59%30.14 "Hg25 mi
Weather by CustomWeather, © 2014

See weather overviewHow to use our weather pages